N8TZ Weather Reports


Display with metric or nautical units.
time (UTC)temp
F
wind
direction
speed
MPH
gust
MPH
rain 1hr
in
rain 24hr
in
rain mn
in
humidity
%
barometer
mb
20260508062855 37 276 2.0 3.0 0.00 0.00 0.00 88 1011.2
20260508062621 37 276 2.0 4.0 0.00 0.00 0.00 88 1011.4
20260508061857 37 276 3.0 4.0 0.00 0.00 0.00 88 1011.5
20260508061614 37 286 2.0 3.0 0.00 0.00 0.00 88 1011.4
20260508060855 37 286 0.0 2.0 0.00 0.00 0.00 87 1011.5
20260508060617 37 286 0.0 0.0 0.00 0.00 0.00 87 1011.5
20260508060113 37 286 0.0 0.0 0.00 0.00 0.00 86 1011.6
20260508055355 38 286 0.0 1.0 0.00 0.00 0.00 86 1011.6
20260508054854 38 286 0.0 1.0 0.00 0.00 0.00 87 1011.7
20260508054355 38 286 0.0 0.0 0.00 0.00 0.00 87 1011.7
20260508054119 38 286 0.0 0.0 0.00 0.00 0.00 87 1011.8
20260508053355 38 286 0.0 1.0 0.00 0.00 0.00 87 1011.9
20260508052854 38 286 0.0 1.0 0.00 0.00 0.00 87 1011.9
20260508052355 38 286 0.0 1.0 0.00 0.00 0.00 87 1011.9
20260508051854 38 286 0.0 0.0 0.00 0.00 0.00 86 1012.0
20260508051354 38 286 0.0 0.0 0.00 0.00 0.00 85 1012.0
20260508051116 38 286 0.0 0.0 0.00 0.00 0.00 86 1012.0
20260508050354 38 286 0.0 1.0 0.00 0.00 0.00 85 1011.9
20260508045852 39 286 0.0 1.0 0.00 0.00 0.00 85 1011.9
20260508045621 38 286 0.0 1.0 0.00 0.00 0.00 84 1011.8
20260508044853 38 286 0.0 0.0 0.00 0.00 0.00 84 1011.8
20260508044353 39 286 0.0 0.0 0.00 0.00 0.00 83 1011.8
20260508043854 39 286 0.0 0.0 0.00 0.00 0.00 83 1011.8
20260508043610 39 286 0.0 0.0 0.00 0.00 0.00 83 1011.8
20260508042853 39 286 0.0 0.0 0.00 0.00 0.00 82 1011.8
20260508042353 39 286 0.0 0.0 0.00 0.00 0.00 82 1011.8
20260508041853 39 286 0.0 0.0 0.00 0.00 0.00 82 1011.7
20260508040853 39 286 0.0 0.0 0.00 0.00 0.00 82 1011.7
20260508040614 40 286 0.0 0.0 0.00 0.00 0.00 82 1011.7
20260508035853 40 286 0.0 0.0 0.00 0.00 0.00 81 1011.7
20260508035353 40 286 0.0 0.0 0.00 0.00 0.00 81 1011.6
20260508034852 40 286 0.0 0.0 0.00 0.00 0.00 80 1011.7
20260508034354 40 286 0.0 0.0 0.00 0.00 0.00 80 1011.7
20260508033853 40 286 0.0 0.0 0.00 0.00 0.00 79 1011.6
20260508033352 40 286 0.0 0.0 0.00 0.00 0.00 78 1011.6
20260508032852 41 286 0.0 0.0 0.00 0.00 0.00 77 1011.6
20260508032353 41 286 0.0 0.0 0.00 0.00 0.00 77 1011.6
20260508031852 41 286 0.0 0.0 0.00 0.00 0.00 77 1011.6
20260508031353 41 286 0.0 0.0 0.00 0.00 0.00 77 1011.6
20260508031121 41 286 0.0 0.0 0.00 0.00 0.00 76 1011.6
20260508030352 42 286 0.0 0.0 0.00 0.00 0.00 75 1011.6
20260508025852 42 286 0.0 0.0 0.00 0.00 0.00 74 1011.7
20260508024851 42 286 0.0 0.0 0.00 0.00 0.00 72 1011.7
20260508024351 42 286 0.0 0.0 0.00 0.00 0.00 71 1011.7
20260508023852 43 286 0.0 0.0 0.00 0.00 0.00 71 1011.7
20260508023116 43 286 0.0 0.0 0.00 0.00 0.00 70 1011.8
20260508022352 43 286 0.0 0.0 0.00 0.00 0.00 69 1011.7
20260508021850 44 286 0.0 0.0 0.00 0.00 0.00 69 1011.7
20260508021617 44 286 0.0 0.0 0.00 0.00 0.00 68 1011.7
20260508020850 44 286 0.0 0.0 0.00 0.00 0.00 68 1011.6
20260508020351 44 286 0.0 0.0 0.00 0.00 0.00 67 1011.4
20260508015851 45 286 0.0 0.0 0.00 0.00 0.00 67 1011.5
20260508015351 45 286 0.0 0.0 0.00 0.00 0.00 67 1011.4
20260508014850 46 286 0.0 0.0 0.00 0.00 0.00 64 1011.4
20260508014350 46 286 0.0 0.0 0.00 0.00 0.00 63 1011.2
20260508013850 46 286 0.0 0.0 0.00 0.00 0.00 63 1011.1
20260508013350 47 286 0.0 0.0 0.00 0.00 0.00 62 1011.1
20260508012850 48 286 0.0 0.0 0.00 0.00 0.00 60 1011.0
20260508012350 49 286 0.0 1.0 0.00 0.00 0.00 60 1011.0
20260508011850 49 286 0.0 2.0 0.00 0.00 0.00 56 1011.0
20260508011350 50 286 0.0 3.0 0.00 0.00 0.00 54 1010.9
20260508010848 50 286 1.0 4.0 0.00 0.00 0.00 52 1010.8
20260508010349 50 286 1.0 4.0 0.00 0.00 0.00 51 1010.8
20260508005850 50 286 1.0 3.0 0.00 0.00 0.00 51 1010.8
20260508005350 51 286 1.0 3.0 0.00 0.00 0.00 51 1010.8
20260508004850 51 286 1.0 3.0 0.00 0.00 0.00 51 1010.7
20260508004349 51 286 1.0 4.0 0.00 0.00 0.00 51 1010.7
20260508003850 51 288 1.0 4.0 0.00 0.00 0.00 51 1010.6
20260508003349 51 288 0.0 3.0 0.00 0.00 0.00 52 1010.7
20260508002849 51 288 0.0 5.0 0.00 0.00 0.00 52 1010.5
20260508002608 52 288 0.0 5.0 0.00 0.00 0.00 51 1010.5
20260508001847 52 288 1.0 5.0 0.00 0.00 0.00 50 1010.4
20260508001347 53 286 2.0 7.0 0.00 0.00 0.00 49 1010.3
20260508000848 53 295 3.0 7.0 0.00 0.00 0.00 49 1010.4
20260507235848 53 333 2.0 7.0 0.00 0.00 0.00 48 1010.3
20260507235349 54 290 3.0 7.0 0.00 0.00 0.00 48 1010.2
20260507234848 54 334 1.0 7.0 0.00 0.00 0.00 47 1010.1
20260507234349 54 274 4.0 7.0 0.00 0.00 0.00 46 1010.0
20260507232347 56 329 6.0 13.0 0.00 0.00 0.00 44 1009.9
20260507231348 56 321 4.0 12.0 0.00 0.00 0.00 44 1009.9
20260507230847 56 321 4.0 11.0 0.00 0.00 0.00 44 1009.8
20260507230349 57 314 6.0 10.0 0.00 0.00 0.00 44 1009.8
20260507225848 57 264 5.0 9.0 0.00 0.00 0.00 42 1009.8
20260507225347 57 21 5.0 12.0 0.00 0.00 0.00 42 1009.7
20260507224848 57 6 5.0 12.0 0.00 0.00 0.00 43 1009.7
20260507224348 57 286 4.0 12.0 0.00 0.00 0.00 42 1009.6
20260507223847 57 264 6.0 16.0 0.00 0.00 0.00 42 1009.6
20260507223348 57 282 7.0 16.0 0.00 0.00 0.00 41 1009.5
20260507222848 58 303 7.0 12.0 0.00 0.00 0.00 39 1009.4
20260507222347 58 309 4.0 12.0 0.00 0.00 0.00 43 1009.4
20260507221847 58 314 4.0 12.0 0.00 0.00 0.00 41 1009.4
20260507221617 58 298 5.0 11.0 0.00 0.00 0.00 42 1009.3
20260507220847 59 320 1.0 11.0 0.00 0.00 0.00 44 1009.1
20260507220347 59 282 4.0 11.0 0.00 0.00 0.00 43 1009.1
20260507215846 59 323 3.0 10.0 0.00 0.00 0.00 42 1009.1
20260507215346 59 300 4.0 10.0 0.00 0.00 0.00 41 1009.1
20260507214847 59 258 3.0 10.0 0.00 0.00 0.00 47 1009.0
20260507214346 59 313 4.0 11.0 0.00 0.00 0.00 41 1008.8
20260507213846 59 285 4.0 11.0 0.00 0.00 0.00 43 1008.8
20260507213608 59 299 5.0 9.0 0.00 0.00 0.00 41 1008.8
20260507212846 59 345 1.0 11.0 0.00 0.00 0.00 45 1008.9
20260507212610 58 283 5.0 11.0 0.00 0.00 0.00 44 1008.9
20260507212110 59 314 6.0 11.0 0.00 0.00 0.00 42 1008.7
20260507210845 58 331 2.0 10.0 0.00 0.00 0.00 46 1008.6
20260507210346 57 307 4.0 9.0 0.00 0.00 0.00 46 1008.6
20260507210105 57 264 5.0 9.0 0.00 0.00 0.00 43 1008.6
20260507205345 58 299 3.0 10.0 0.00 0.00 0.00 47 1008.7
20260507204845 58 309 3.0 10.0 0.00 0.00 0.00 46 1008.6
20260507204345 58 310 4.0 9.0 0.00 0.00 0.00 45 1008.4
20260507203846 59 265 5.0 13.0 0.00 0.00 0.00 44 1008.4
20260507203609 59 303 8.0 14.0 0.00 0.00 0.00 42 1008.6
20260507202843 59 262 5.0 14.0 0.00 0.00 0.00 42 1008.4
20260507202343 60 265 8.0 14.0 0.00 0.00 0.00 41 1008.3
20260507201843 60 283 7.0 12.0 0.00 0.00 0.00 40 1008.6
20260507201609 60 298 2.0 7.0 0.00 0.00 0.00 45 1008.4
20260507200845 60 266 5.0 7.0 0.00 0.00 0.00 45 1008.6
20260507200346 59 303 2.0 13.0 0.00 0.00 0.00 49 1008.4
20260507195845 57 299 5.0 13.0 0.00 0.00 0.00 45 1008.6
20260507195605 57 281 6.0 12.0 0.00 0.00 0.00 45 1008.8
20260507194845 58 257 8.0 13.0 0.00 0.00 0.00 42 1008.8
20260507194344 58 292 6.0 13.0 0.00 0.00 0.00 45 1008.8
20260507193844 58 281 4.0 14.0 0.00 0.00 0.00 44 1008.9
20260507193344 59 258 8.0 14.0 0.00 0.00 0.00 43 1008.9
20260507192844 58 279 6.0 14.0 0.00 0.00 0.00 46 1009.0
20260507192343 58 300 6.0 17.0 0.00 0.00 0.00 44 1009.0
20260507191844 58 274 7.0 17.0 0.00 0.00 0.00 47 1009.0
20260507191344 58 252 5.0 12.0 0.00 0.00 0.00 41 1009.0
20260507190843 60 254 7.0 12.0 0.00 0.00 0.00 41 1009.1
20260507190344 59 237 8.0 11.0 0.00 0.00 0.00 47 1009.2
20260507185844 59 281 4.0 17.0 0.00 0.00 0.00 48 1009.0
20260507185602 59 268 9.0 17.0 0.00 0.00 0.00 44 1009.0
20260507184843 59 233 7.0 12.0 0.00 0.00 0.00 42 1008.9
20260507184343 59 298 6.0 17.0 0.00 0.00 0.00 44 1009.1
20260507183842 59 327 6.0 17.0 0.00 0.00 0.00 42 1009.0
20260507183606 59 237 7.0 12.0 0.00 0.00 0.00 43 1009.1
20260507182843 59 259 7.0 11.0 0.00 0.00 0.00 43 1009.1
20260507182342 58 344 6.0 12.0 0.00 0.00 0.00 46 1009.0
20260507181843 57 279 8.0 12.0 0.00 0.00 0.00 42 1009.1
20260507181343 58 321 7.0 11.0 0.00 0.00 0.00 44 1009.2
20260507180842 58 309 6.0 11.0 0.00 0.00 0.00 44 1009.1
20260507180343 58 281 6.0 12.0 0.00 0.00 0.00 42 1009.2
20260507180103 58 288 4.0 12.0 0.00 0.00 0.00 49 1009.2
20260507175342 59 285 5.0 11.0 0.00 0.00 0.00 46 1009.2
20260507174842 58 264 5.0 16.0 0.00 0.00 0.00 46 1009.3
20260507174342 59 265 6.0 16.0 0.00 0.00 0.00 46 1009.4
20260507173843 59 265 4.0 12.0 0.00 0.00 0.00 45 1009.3
20260507173342 58 305 4.0 13.0 0.00 0.00 0.00 47 1009.5
20260507172842 57 289 6.0 13.0 0.00 0.00 0.00 45 1009.5
20260507172342 57 293 5.0 12.0 0.00 0.00 0.00 46 1009.5
20260507171840 57 243 6.0 11.0 0.00 0.00 0.00 50 1009.6
20260507171344 56 266 2.0 10.0 0.00 0.00 0.00 47 1009.6
20260507170843 56 261 5.0 13.0 0.00 0.00 0.00 42 1009.7
20260507170341 57 278 6.0 13.0 0.00 0.00 0.00 48 1009.9
20260507170103 57 283 7.0 10.0 0.00 0.00 0.00 44 1009.8
20260507165342 58 271 3.0 11.0 0.00 0.00 0.00 47 1010.0
20260507164842 57 274 6.0 11.0 0.00 0.00 0.00 45 1010.1
20260507164341 57 292 6.0 12.0 0.00 0.00 0.00 49 1010.1
20260507164101 57 344 5.0 12.0 0.00 0.00 0.00 45 1010.0
20260507163343 57 329 3.0 10.0 0.00 0.00 0.00 46 1010.1
20260507162839 56 265 5.0 11.0 0.00 0.00 0.00 50 1010.0
20260507162340 57 255 7.0 15.0 0.00 0.00 0.00 48 1010.1
20260507161839 56 309 7.0 15.0 0.00 0.00 0.00 48 1010.0
20260507161341 56 274 9.0 15.0 0.00 0.00 0.00 47 1010.1
20260507160841 56 238 4.0 15.0 0.00 0.00 0.00 48 1010.1
20260507160601 56 272 7.0 15.0 0.00 0.00 0.00 49 1010.1
20260507155841 56 233 8.0 15.0 0.00 0.00 0.00 51 1010.1
20260507155341 56 305 3.0 10.0 0.00 0.00 0.00 53 1010.2
20260507154841 56 264 6.0 10.0 0.00 0.00 0.00 53 1010.3
20260507154341 55 234 4.0 10.0 0.00 0.00 0.00 53 1010.2
20260507154105 55 289 5.0 10.0 0.00 0.00 0.00 54 1010.2
20260507153341 55 281 5.0 10.0 0.00 0.00 0.00 55 1010.3
20260507152840 54 276 6.0 9.0 0.00 0.00 0.00 55 1010.3
20260507152602 54 231 4.0 7.0 0.00 0.00 0.00 53 1010.3
20260507151840 54 279 3.0 7.0 0.00 0.00 0.00 54 1010.3
20260507151340 55 276 2.0 9.0 0.00 0.00 0.00 50 1010.3
20260507150839 55 321 4.0 10.0 0.00 0.00 0.00 54 1010.4
20260507145840 54 235 7.0 16.0 0.00 0.00 0.00 52 1010.5
20260507145339 54 245 8.0 16.0 0.00 0.00 0.00 50 1010.5
20260507144839 54 257 8.0 13.0 0.00 0.00 0.00 52 1010.5
20260507144339 54 223 6.0 13.0 0.00 0.00 0.00 55 1010.6
20260507144101 54 262 5.0 12.0 0.00 0.00 0.00 57 1010.7
20260507143341 54 268 5.0 11.0 0.00 0.00 0.00 59 1010.7
20260507142839 53 274 3.0 9.0 0.00 0.00 0.00 61 1010.7
20260507142339 53 285 4.0 9.0 0.00 0.00 0.00 60 1010.8
20260507141839 53 214 6.0 9.0 0.00 0.00 0.00 62 1010.8
20260507141339 53 286 4.0 10.0 0.00 0.00 0.00 61 1011.0
20260507140840 53 257 4.0 10.0 0.00 0.00 0.00 62 1011.0
20260507140338 53 295 2.0 5.0 0.00 0.00 0.00 65 1011.0
20260507135838 53 276 3.0 10.0 0.00 0.00 0.00 63 1011.0
20260507135558 52 243 5.0 10.0 0.00 0.00 0.00 64 1011.2
20260507135057 52 252 4.0 9.0 0.00 0.00 0.00 64 1011.2
20260507134338 52 261 4.0 9.0 0.00 0.00 0.00 63 1011.2
20260507133838 52 286 4.0 10.0 0.00 0.00 0.00 64 1011.2
20260507133338 52 257 5.0 10.0 0.00 0.01 0.00 62 1011.4
20260507132838 52 274 4.0 10.0 0.00 0.01 0.00 65 1011.5
20260507132336 51 234 5.0 10.0 0.00 0.01 0.00 64 1011.5
20260507131838 51 235 5.0 10.0 0.00 0.01 0.00 66 1011.2
20260507130837 50 196 5.0 9.0 0.00 0.01 0.00 70 1011.4
20260507130337 50 203 4.0 9.0 0.00 0.01 0.00 69 1011.4
20260507125838 50 210 4.0 6.0 0.00 0.02 0.00 71 1011.5
20260507125338 49 212 4.0 6.0 0.00 0.02 0.00 72 1011.5
20260507124837 49 217 4.0 6.0 0.00 0.02 0.00 71 1011.5
20260507124338 49 209 4.0 6.0 0.00 0.02 0.00 74 1011.5
20260507123837 48 233 3.0 5.0 0.00 0.02 0.00 76 1011.5
20260507123335 48 234 2.0 5.0 0.00 0.02 0.00 78 1011.4
20260507122835 47 234 3.0 5.0 0.00 0.02 0.00 79 1011.5
20260507122335 47 241 3.0 5.0 0.00 0.02 0.00 82 1011.4
20260507122106 46 244 3.0 5.0 0.00 0.02 0.00 85 1011.5
20260507121338 45 252 2.0 4.0 0.00 0.02 0.00 88 1011.5
20260507120836 44 254 3.0 4.0 0.00 0.02 0.00 91 1011.5
20260507120336 44 262 2.0 4.0 0.00 0.02 0.00 93 1011.4
20260507115837 43 350 1.0 2.0 0.00 0.02 0.00 94 1011.4
20260507115336 42 350 1.0 2.0 0.00 0.02 0.00 94 1011.2
20260507114836 42 350 0.0 1.0 0.00 0.02 0.00 94 1011.4
20260507114336 41 350 0.0 1.0 0.00 0.03 0.00 94 1011.2
20260507113836 40 350 0.0 2.0 0.00 0.03 0.00 94 1011.2
20260507113336 40 350 1.0 2.0 0.00 0.04 0.00 94 1011.4
20260507113104 39 350 0.0 2.0 0.00 0.04 0.00 94 1011.2
20260507112336 39 350 0.0 1.0 0.00 0.05 0.00 94 1011.2
20260507111336 38 350 0.0 0.0 0.00 0.05 0.00 94 1011.1
20260507110836 37 350 0.0 0.0 0.00 0.05 0.00 94 1011.1
20260507110335 37 350 0.0 0.0 0.00 0.05 0.00 94 1010.9
20260507105835 36 350 0.0 0.0 0.00 0.05 0.00 93 1010.9
20260507105336 36 350 0.0 0.0 0.00 0.05 0.00 93 1010.7
20260507104835 36 350 0.0 0.0 0.00 0.05 0.00 93 1010.7
20260507103835 36 350 0.0 0.0 0.00 0.05 0.00 93 1010.7
20260507103555 36 350 0.0 0.0 0.00 0.05 0.00 92 1010.6
20260507102835 36 350 0.0 0.0 0.00 0.05 0.00 92 1010.7
20260507102335 37 350 0.0 0.0 0.00 0.05 0.00 92 1010.6
20260507101836 37 350 0.0 0.0 0.00 0.05 0.00 92 1010.7
20260507101335 37 350 0.0 0.0 0.00 0.05 0.00 92 1010.7
20260507101101 37 350 0.0 0.0 0.00 0.05 0.00 92 1010.7
20260507095834 37 350 0.0 0.0 0.00 0.06 0.00 92 1010.7
20260507095334 37 350 0.0 0.0 0.00 0.06 0.00 92 1010.7
20260507094834 37 350 0.0 0.0 0.00 0.07 0.00 92 1010.6
20260507094335 37 350 0.0 0.0 0.00 0.08 0.00 92 1010.5
20260507093834 37 350 0.0 0.0 0.00 0.08 0.00 92 1010.5
20260507093335 37 350 0.0 0.0 0.00 0.08 0.00 91 1010.6
20260507092834 38 350 0.0 0.0 0.00 0.09 0.00 91 1010.6
20260507092333 38 350 0.0 0.0 0.00 0.09 0.00 91 1010.5
20260507091833 38 350 0.0 0.0 0.00 0.09 0.00 91 1010.5
20260507091333 38 350 0.0 0.0 0.00 0.10 0.00 91 1010.5
20260507090834 38 350 0.0 0.0 0.00 0.10 0.00 91 1010.5
20260507090333 38 350 0.0 0.0 0.00 0.10 0.00 91 1010.5
20260507085834 38 350 0.0 0.0 0.00 0.11 0.00 91 1010.5
20260507085333 38 350 0.0 0.0 0.00 0.11 0.00 90 1010.5
20260507084330 39 350 0.0 0.0 0.00 0.12 0.00 90 1010.6
20260507083332 39 350 0.0 0.0 0.00 0.13 0.00 90 1010.7
20260507083050 39 350 0.0 0.0 0.00 0.14 0.00 89 1010.7
20260507082333 39 350 0.0 0.0 0.00 0.14 0.00 89 1010.8
20260507081833 40 350 0.0 0.0 0.00 0.14 0.00 89 1010.8
20260507081334 40 350 0.0 0.0 0.00 0.15 0.00 89 1010.8
20260507080832 40 350 0.0 0.0 0.00 0.15 0.00 88 1010.8
20260507080332 40 350 0.0 0.0 0.00 0.17 0.00 88 1010.9
20260507075832 40 350 0.0 0.0 0.00 0.18 0.00 88 1010.9
20260507075332 41 350 0.0 0.0 0.00 0.19 0.00 88 1010.8
20260507074332 41 350 0.0 0.0 0.00 0.21 0.00 87 1010.7
20260507074051 41 350 0.0 0.0 0.00 0.21 0.00 86 1010.7
20260507073332 42 350 0.0 0.0 0.00 0.22 0.00 86 1010.7
20260507072832 42 350 0.0 0.0 0.00 0.23 0.00 85 1010.8
20260507072331 42 350 0.0 0.0 0.00 0.23 0.00 84 1010.7
20260507071832 43 350 0.0 0.0 0.00 0.24 0.00 84 1010.8
20260507071332 43 350 0.0 0.0 0.00 0.25 0.00 83 1010.8
20260507070831 44 350 0.0 0.0 0.00 0.25 0.00 82 1010.8
20260507070331 44 350 0.0 0.0 0.00 0.25 0.00 81 1010.8
20260507065832 44 350 0.0 0.0 0.00 0.26 0.00 81 1010.6
20260507065331 44 350 0.0 0.0 0.00 0.28 0.00 80 1010.7
20260507064831 45 350 0.0 0.0 0.00 0.29 0.00 79 1010.9
20260507063831 46 350 0.0 0.0 0.00 0.29 0.00 78 1010.9
20260507063548 46 350 0.0 0.0 0.00 0.29 0.00 76 1010.9